Pocatello, ID

1:47 PM MDT on September 19, 2017 (GMT -0600)
Pocatello Regional

Weather History for KPIH - November, 2012

Change the Weather History Date:

Monday, November 19, 2012

  Actual Average Record
Temperature  
Mean Temperature 44 °F 33 °F  
Max Temperature 53 °F 42 °F 66 °F (2007)
Min Temperature 35 °F 23 °F 3 °F (1956)
Degree Days  
Heating Degree Days 21 32  
Month to date heating degree days 470 534  
Since 1 July heating degree days 1168 1341  
Cooling Degree Days 0 0  
Month to date cooling degree days 0 0  
Year to date cooling degree days 560 392  
Moisture  
Dew Point 37 °F    
Average Humidity 78    
Maximum Humidity 100    
Minimum Humidity 56    
Precipitation  
Precipitation 0.08 in 0.04 in 0.22 in (1990)
Month to date precipitation 1.09 0.66  
Year to date precipitation 8.68 10.44  
Snow  
Snow 0.00 in - - ()
Month to date snowfall 4.9  
Since 1 July snowfall 7.1  
Since 1 September snowfall 7.1  
Snow Depth 0.00 in    
Sea Level Pressure  
Sea Level Pressure 30.18 in    
Wind  
Wind Speed 10 mph (South)    
Max Wind Speed 24 mph    
Max Gust Speed 31 mph    
Visibility 10 miles    
Events Rain    
T = Trace of Precipitation, MM = Missing Value Source: NWS Daily Summary

Daily Weather History Graph

Daily Weather History Graph

Search for Another Location

Airport or City:

Trip Planner

Search our weather history database for the weather conditions in past years. The results will help you decide how hot, cold, wet, or windy it might be!

Date:

Astronomy

Nov. 19, 2012 Rise Set
Actual Time 7:28 AM MST 5:03 PM MST
Civil Twilight 6:57 AM MST 5:34 PM MST
Nautical Twilight 6:22 AM MST 6:08 PM MST
Astronomical Twilight 5:49 AM MST 6:42 PM MST
Moon 12:29 PM MST 11:38 PM MST
Length of Visible Light 10h 36m
Length of Day
9h 34m
Waxing Crescent, 41% of the Moon is Illuminated
Nov 19
Waxing Crescent
Nov 20
First Quarter
Nov 28
Full
Dec 6
Last Quarter
Dec 13
New

Hourly Weather History & Observations

Time (MST) Temp. Windchill Dew Point Humidity Pressure Visibility Wind Dir Wind Speed Gust Speed Precip Events Conditions
12:53 AM 37.9 °F 31.5 °F 35.1 °F 89% 30.16 in 10.0 mi SW 9.2 mph - N/A   Overcast
1:53 AM 37.0 °F - 34.0 °F 89% 30.15 in 10.0 mi Calm Calm - N/A   Mostly Cloudy
2:53 AM 36.0 °F - 34.0 °F 93% 30.17 in 10.0 mi Calm Calm - N/A   Overcast
3:53 AM 37.0 °F - 35.1 °F 93% 30.18 in 10.0 mi Calm Calm - 0.00 in Rain Light Rain
4:53 AM 37.9 °F 33.5 °F 36.0 °F 93% 30.20 in 9.0 mi WSW 5.8 mph - 0.03 in Rain Light Rain
5:53 AM 37.9 °F - 37.0 °F 97% 30.22 in 10.0 mi Calm Calm - 0.03 in Rain Light Rain
6:53 AM 37.9 °F 33.5 °F 37.0 °F 97% 30.21 in 10.0 mi SSE 5.8 mph - 0.02 in   Overcast
7:53 AM 39.0 °F 33.4 °F 37.0 °F 93% 30.22 in 10.0 mi East 8.1 mph - N/A   Mostly Cloudy
8:53 AM 41.0 °F - 37.9 °F 89% 30.23 in 10.0 mi Calm Calm - N/A   Mostly Cloudy
9:53 AM 46.0 °F 39.3 °F 39.9 °F 79% 30.23 in 10.0 mi South 16.1 mph 20.7 mph N/A   Mostly Cloudy
10:53 AM 48.0 °F - 39.9 °F 74% 30.23 in 10.0 mi South 9.2 mph 18.4 mph N/A   Mostly Cloudy
11:53 AM 51.1 °F - 39.9 °F 66% 30.21 in 10.0 mi South 15.0 mph - N/A   Scattered Clouds
12:53 PM 52.0 °F - 39.0 °F 61% 30.19 in 10.0 mi South 13.8 mph - N/A   Scattered Clouds
1:53 PM 51.1 °F - 39.0 °F 63% 30.18 in 10.0 mi South 6.9 mph - N/A   Overcast
2:53 PM 51.1 °F - 39.0 °F 63% 30.17 in 10.0 mi South 6.9 mph - 0.00 in Rain Light Rain
3:53 PM 50.0 °F - 37.9 °F 63% 30.18 in 10.0 mi South 15.0 mph - 0.00 in   Mostly Cloudy
4:53 PM 50.0 °F - 37.0 °F 61% 30.17 in 10.0 mi South 12.7 mph - N/A   Mostly Cloudy
5:53 PM 48.9 °F - 36.0 °F 61% 30.17 in 10.0 mi South 13.8 mph - N/A   Mostly Cloudy
6:53 PM 48.9 °F - 35.1 °F 59% 30.17 in 10.0 mi South 15.0 mph 23.0 mph N/A   Mostly Cloudy
7:53 PM 48.0 °F - 34.0 °F 58% 30.17 in 10.0 mi South 15.0 mph - N/A   Scattered Clouds
8:53 PM 48.9 °F - 35.1 °F 59% 30.16 in 10.0 mi South 20.7 mph 31.1 mph N/A   Overcast
9:53 PM 48.9 °F - 34.0 °F 56% 30.15 in 10.0 mi South 18.4 mph 25.3 mph N/A   Mostly Cloudy
10:53 PM 48.9 °F - 35.1 °F 59% 30.14 in 10.0 mi South 21.9 mph 27.6 mph N/A   Mostly Cloudy
11:53 PM 50.0 °F - 35.1 °F 57% 30.13 in 10.0 mi South 18.4 mph 27.6 mph N/A   Overcast